Date String (YYYY-MM-DD hh:mm:ss) UTC,Instrument flags,Ambient pressure (hPa),Sample flow (lpm),Bypass flow (lpm),Sample temperature (°C),Ambient temperature (°C),ASC tube jacket temperature (°C),LED temperature (°C),Box temperature (°C),Sample RH (%),Span deviation,Mass concentration (μg/m³),Mass concentration (μg/m³),Mass concentration (μg/m³)
DateTimeUTC,F1_M11,P_M11,Q1_M11,Q2_M11,T1_M11,T2_M11,T3_M11,T4_M11,T5_M11,U1_M11,ZSPAN_M11,X0_M11,X2_M11,X1_M11
2022-06-13 10:00:00,,0815.8,5.00,0.00,29.7,28.9,00.0,38.6,31.7,08.2,0000.4,0025.10,0007.86,0004.83
2022-06-13 10:01:00,,0815.8,4.99,0.00,29.8,28.9,00.0,38.6,31.7,08.2,0000.0,0025.84,0007.85,0004.81
2022-06-13 10:02:00,,0815.8,4.99,0.00,29.8,28.9,00.0,38.6,31.7,08.4,0000.0,0025.12,0007.83,0004.81
2022-06-13 10:03:00,,0815.9,5.00,0.00,29.8,28.9,00.0,38.6,31.7,08.9,0000.0,0023.75,0007.74,0004.82
2022-06-13 10:04:00,,0815.9,5.01,0.00,29.8,29.0,00.0,38.6,31.7,09.5,0000.0,0023.20,0007.67,0004.82
2022-06-13 10:05:00,,0815.8,5.01,0.00,29.8,29.0,00.0,38.6,31.7,08.9,0000.0,0022.92,0007.66,0004.81
2022-06-13 10:06:00,,0815.8,4.99,0.00,29.8,29.0,00.0,38.7,31.8,08.9,0000.0,0022.49,0007.73,0004.82
2022-06-13 10:07:00,,0815.8,5.00,0.00,29.9,29.0,00.0,38.7,31.8,09.4,0000.0,0022.28,0007.74,0004.82
2022-06-13 10:08:00,,0815.8,5.01,0.00,29.9,29.0,00.0,38.7,31.8,09.4,0000.0,0021.36,0007.70,0004.83
2022-06-13 10:09:00,,0815.8,4.99,0.00,29.9,28.7,00.0,38.7,31.7,09.3,0000.0,0022.08,0007.70,0004.83
2022-06-13 10:10:00,,0815.8,5.01,0.00,29.8,27.9,00.0,38.6,31.5,09.0,0000.0,0022.28,0007.69,0004.83
2022-06-13 10:11:00,,0815.8,4.99,0.00,29.7,27.6,00.0,38.5,31.4,09.1,0000.0,0021.35,0007.62,0004.83
2022-06-13 10:12:00,,0815.8,5.01,0.00,29.6,27.5,00.0,38.5,31.3,08.9,0000.0,0020.34,0007.55,0004.84
2022-06-13 10:13:00,,0815.8,4.98,0.00,29.6,27.5,00.0,38.5,31.3,08.7,0000.9,0021.40,0007.53,0004.83
2022-06-13 10:14:00,,0815.8,5.00,0.00,29.5,27.6,00.0,38.5,31.3,08.5,0003.2,0021.90,0007.54,0004.81
2022-06-13 10:15:00,,0815.8,5.01,0.00,29.5,27.7,00.0,38.5,31.3,08.5,0003.2,0021.81,0007.61,0004.80
2022-06-13 10:16:00,,0815.8,4.99,0.00,29.5,27.9,00.0,38.5,31.3,08.4,0002.8,0022.02,0007.57,0004.79
2022-06-13 10:17:00,,0815.8,5.00,0.00,29.5,28.0,00.0,38.5,31.3,08.5,0003.0,0021.47,0007.54,0004.77
2022-06-13 10:18:00,,0815.8,4.99,0.00,29.5,28.1,00.0,38.5,31.4,08.3,0002.7,0022.00,0007.56,0004.75
2022-06-13 10:19:00,,0815.8,5.00,0.00,29.5,28.2,00.0,38.5,31.4,08.4,0001.0,0023.28,0007.50,0004.73
2022-06-13 10:20:00,,0815.8,4.98,0.00,29.5,28.3,00.0,38.5,31.4,08.3,0000.1,0024.08,0007.49,0004.72
2022-06-13 10:21:00,,0815.8,5.00,0.00,29.5,28.3,00.0,38.5,31.4,08.3,0000.0,0025.03,0007.56,0004.71
2022-06-13 10:22:00,,0815.8,5.01,0.00,29.5,28.4,00.0,38.4,31.4,08.3,0000.0,0025.23,0007.67,0004.72
2022-06-13 10:23:00,,0815.8,5.00,0.00,29.6,28.5,00.0,38.5,31.5,08.4,0000.0,0025.35,0007.70,0004.71
2022-06-13 10:24:00,,0815.8,5.00,0.00,29.6,28.5,00.0,38.5,31.5,08.4,0000.0,0024.89,0007.78,0004.72
2022-06-13 10:25:00,,0815.8,4.99,0.00,29.6,28.6,00.0,38.5,31.5,08.3,0000.0,0026.05,0007.84,0004.73
2022-06-13 10:26:00,,0815.9,5.01,0.00,29.6,28.6,00.0,38.5,31.5,08.3,0000.0,0026.96,0007.88,0004.74
2022-06-13 10:27:00,,0815.8,5.00,0.00,29.6,28.6,00.0,38.5,31.5,08.2,0000.0,0026.96,0007.97,0004.75
2022-06-13 10:28:00,,0815.9,4.99,0.00,29.6,28.7,00.0,38.5,31.6,08.2,0000.0,0026.86,0007.97,0004.75
2022-06-13 10:29:00,,0815.9,4.99,0.00,29.7,28.7,00.0,38.5,31.6,08.4,0000.0,0026.11,0007.91,0004.75
2022-06-13 10:30:00,,0815.9,5.00,0.00,29.7,28.7,00.0,38.5,31.6,08.5,0000.0,0024.61,0007.89,0004.74
2022-06-13 10:31:00,,0815.9,5.00,0.00,29.7,28.8,00.0,38.5,31.6,08.9,0000.0,0022.97,0007.79,0004.72
2022-06-13 10:32:00,,0815.9,5.00,0.00,29.7,28.8,00.0,38.5,31.6,08.7,0000.0,0021.30,0007.70,0004.71
2022-06-13 10:33:00,,0816.0,5.01,0.00,29.7,28.8,00.0,38.6,31.6,08.3,0000.0,0021.18,0007.60,0004.69
2022-06-13 10:34:00,,0815.9,5.00,0.00,29.7,28.8,00.0,38.6,31.6,08.2,0000.0,0021.47,0007.64,0004.68
2022-06-13 10:35:00,,0815.9,5.00,0.00,29.7,28.8,00.0,38.6,31.7,08.1,0000.0,0021.48,0007.61,0004.67
2022-06-13 10:36:00,,0815.9,4.99,0.00,29.8,28.8,00.0,38.6,31.7,08.1,0000.0,0020.82,0007.59,0004.65
2022-06-13 10:37:00,,0815.9,5.01,0.00,29.8,28.9,00.0,38.6,31.7,08.0,0000.0,0019.82,0007.46,0004.62
2022-06-13 10:38:00,,0815.9,5.01,0.00,29.8,28.9,00.0,38.6,31.7,08.0,0000.0,0019.58,0007.41,0004.60
2022-06-13 10:39:00,,0815.9,5.00,0.00,29.8,28.9,00.0,38.6,31.7,08.0,0000.0,0019.54,0007.36,0004.59
2022-06-13 10:40:00,,0815.9,5.00,0.00,29.8,28.9,00.0,38.6,31.8,08.0,0000.0,0019.50,0007.34,0004.58
2022-06-13 10:41:00,,0815.9,4.99,0.00,29.8,28.9,00.0,38.7,31.8,07.9,0000.0,0019.39,0007.32,0004.59
2022-06-13 10:42:00,,0815.9,5.00,0.00,29.9,29.0,00.0,38.7,31.8,07.9,0000.0,0019.52,0007.32,0004.60
2022-06-13 10:43:00,,0816.0,5.01,0.00,29.9,29.0,00.0,38.7,31.7,08.3,0000.0,0020.02,0007.36,0004.59
2022-06-13 10:44:00,,0816.0,5.01,0.00,29.9,29.0,00.0,38.7,31.8,08.1,0000.0,0020.38,0007.41,0004.59
2022-06-13 10:45:00,,0815.9,4.99,0.00,29.9,29.0,00.0,38.7,31.8,08.0,0000.0,0020.96,0007.34,0004.59
2022-06-13 10:46:00,,0815.9,5.00,0.00,29.9,29.0,00.0,38.7,31.8,07.8,0000.0,0021.00,0007.28,0004.58
2022-06-13 10:47:00,,0815.9,5.00,0.00,29.9,29.0,00.0,38.7,31.8,07.7,0000.0,0021.24,0007.32,0004.57
2022-06-13 10:48:00,,0815.8,5.00,0.00,29.9,29.0,00.0,38.8,31.8,07.6,0000.0,0021.80,0007.42,0004.58
2022-06-13 10:49:00,,0815.8,4.99,0.00,30.0,29.0,00.0,38.8,31.8,07.5,0000.0,0021.44,0007.40,0004.57
2022-06-13 10:50:00,,0815.8,5.00,0.00,29.9,28.3,00.0,38.7,31.7,08.0,0000.7,0022.33,0007.40,0004.57
2022-06-13 10:51:00,,0815.7,5.00,0.00,29.8,27.7,00.0,38.6,31.5,07.8,0000.2,0023.13,0007.46,0004.57
2022-06-13 10:52:00,,0815.7,5.00,0.00,29.7,27.5,00.0,38.6,31.4,07.3,0000.1,0024.46,0007.56,0004.55
2022-06-13 10:53:00,,0815.8,4.99,0.00,29.6,27.5,00.0,38.6,31.3,07.8,0000.0,0025.07,0007.58,0004.54
2022-06-13 10:54:00,,0815.8,4.99,0.00,29.6,27.5,00.0,38.6,31.3,07.6,0000.0,0025.50,0007.56,0004.54
2022-06-13 10:55:00,,0815.7,5.00,0.00,29.6,27.6,00.0,38.5,31.3,07.5,0000.0,0024.84,0007.57,0004.53
2022-06-13 10:56:00,,0815.8,5.00,0.00,29.5,27.8,00.0,38.5,31.3,07.5,0000.0,0024.43,0007.58,0004.52
2022-06-13 10:57:00,,0815.7,5.01,0.00,29.5,27.9,00.0,38.5,31.3,07.5,0000.0,0024.85,0007.62,0004.51
2022-06-13 10:58:00,,0815.7,5.00,0.00,29.5,28.0,00.0,38.5,31.4,07.3,0000.0,0024.39,0007.50,0004.49
2022-06-13 10:59:00,,0815.7,5.00,0.00,29.5,28.1,00.0,38.5,31.4,07.3,0000.0,0024.12,0007.31,0004.44
